Hourly Data Report for June 22, 2021

VICTORIA UNIVERSITY CS
BRITISH COLUMBIA
Current Station Operator: ECCC - MSC

48°27'25.200" N
123°18'16.600" W
60.10 m
1018598
71783
WYJ

Download Data

Hourly Data (June 2021)
Hourly Data Report for June 22, 2021
TIME
LST
Temp Definition
°C
Dew Point Definition
°C
Rel Hum Definition
%
Precip. Amount Definition
mm

Wind Dir Definition
10's deg

Wind Spd Definition
km/h
Visibility Definition
km
Stn Press Definition
kPa
Hmdx Definition


Wind Chill Definition


Weather Definition


00:00 15.7 11.9 78 0.0 0 1   100.22     LegendNANA
01:00 14.8 12.4 86 0.0 0 1   100.20     LegendNANA
02:00 13.8 10.9 83 0.0 19 2   100.24     LegendNANA
03:00 12.8 11.8 94 0.0   0   100.26     LegendNANA
04:00 12.8 11.2 90 0.0   0   100.28     LegendNANA
05:00 12.5 12.1 97 0.0   0   100.31     LegendNANA
06:00 15.2 12.4 83 0.0 11 1   100.35     LegendNANA
07:00 15.1 12.1 82 0.0 12 3   100.37     LegendNANA
08:00 15.2 11.8 80 0.0 10 3   100.38     LegendNANA
09:00 18.1 12.6 70 0.0 16 3   100.38     LegendNANA
10:00 18.4 11.8 65 0.0 19 8   100.39     LegendNANA
11:00 18.2 12.1 67 0.0 21 12   100.39     LegendNANA
12:00 18.5 12.1 66 0.0 21 9   100.33     LegendNANA
13:00 22.0 12.9 56 0.0 22 11   100.30 25   LegendNANA
14:00 22.2 12.7 55 0.0 22 8   100.30 25   LegendNANA
15:00 23.7 12.9 51 0.0 22 9   100.25 26   LegendNANA
16:00 23.5 13.1 52 0.0 24 10   100.20 26   LegendNANA
17:00 22.9 12.2 51 0.0 22 9   100.16 25   LegendNANA
18:00 22.0 11.7 52 0.0 23 12   100.10     LegendNANA
19:00 21.3 11.6 54 0.0 24 8   100.10     LegendNANA
20:00 17.9 11.0 64 0.0 25 6   100.11     LegendNANA
21:00 16.5 10.5 68 0.0 24 8   100.15     LegendNANA
22:00 15.3 10.2 71 0.0 24 5   100.16     LegendNANA
23:00 13.5 10.2 81 0.0 25 4   100.20     LegendNANA

Notes on Data Quality.

Legend

  • E = Estimated
  • M = Missing
  • NA = Not Available*
  • [empty] = Indicates an unobserved value
Date modified: